TimeMST,TemperatureF,Dew PointF,Humidity,Sea Level PressureIn,VisibilityMPH,Wind Direction,Wind SpeedMPH,Gust SpeedMPH,PrecipitationIn,Events,Conditions,WindDirDegrees,DateUTC
12:15 AM,57.2,37.4,48,29.84,10.0,WSW,6.9,-,N/A,,Overcast,240,2014-02-01 07:15:00
12:30 AM,57.2,35.6,44,29.84,10.0,WSW,8.1,-,N/A,,Overcast,240,2014-02-01 07:30:00
12:40 AM,57.2,35.6,44,29.84,10.0,SW,8.1,-,N/A,,Overcast,230,2014-02-01 07:40:00
1:10 AM,57.2,35.6,44,29.84,10.0,SW,6.9,-,N/A,,Overcast,220,2014-02-01 08:10:00
1:35 AM,57.2,35.6,44,29.85,10.0,WSW,9.2,-,N/A,,Overcast,240,2014-02-01 08:35:00
1:55 AM,57.2,35.6,44,29.85,10.0,West,9.2,-,N/A,,Overcast,260,2014-02-01 08:55:00
2:15 AM,57.2,35.6,44,29.85,10.0,WSW,6.9,12.7,N/A,,Overcast,240,2014-02-01 09:15:00
2:30 AM,57.2,35.6,44,29.85,10.0,West,6.9,-,N/A,,Overcast,260,2014-02-01 09:30:00
2:55 AM,55.4,37.4,51,29.85,10.0,West,8.1,-,N/A,,Overcast,260,2014-02-01 09:55:00
3:15 AM,55.4,37.4,51,29.85,10.0,West,6.9,-,N/A,,Overcast,260,2014-02-01 10:15:00
3:35 AM,55.4,37.4,51,29.85,10.0,West,6.9,-,N/A,,Mostly Cloudy,260,2014-02-01 10:35:00
3:55 AM,53.6,37.4,54,29.85,10.0,West,4.6,-,N/A,,Mostly Cloudy,280,2014-02-01 10:55:00
4:15 AM,53.6,37.4,54,29.85,10.0,Calm,Calm,-,N/A,,Mostly Cloudy,0,2014-02-01 11:15:00
4:35 AM,53.6,37.4,54,29.85,10.0,Calm,Calm,-,N/A,,Overcast,0,2014-02-01 11:35:00
4:55 AM,53.6,37.4,54,29.85,10.0,Calm,Calm,-,N/A,,Overcast,0,2014-02-01 11:55:00
5:15 AM,53.6,37.4,54,29.86,10.0,Calm,Calm,-,N/A,,Overcast,0,2014-02-01 12:15:00
5:35 AM,53.6,37.4,54,29.86,10.0,SW,6.9,-,N/A,,Overcast,220,2014-02-01 12:35:00
5:55 AM,51.8,35.6,54,29.86,10.0,SSW,4.6,-,N/A,,Overcast,210,2014-02-01 12:55:00
6:15 AM,51.8,35.6,54,29.86,10.0,Calm,Calm,-,N/A,,Overcast,0,2014-02-01 13:15:00
6:35 AM,51.8,35.6,54,29.87,10.0,Calm,Calm,-,N/A,,Mostly Cloudy,0,2014-02-01 13:35:00
6:55 AM,51.8,35.6,54,29.87,10.0,Calm,Calm,-,N/A,,Clear,0,2014-02-01 13:55:00
7:15 AM,48.2,35.6,62,29.88,10.0,Calm,Calm,-,N/A,,Clear,0,2014-02-01 14:15:00
7:35 AM,46.4,35.6,66,29.88,10.0,South,4.6,-,N/A,,Clear,170,2014-02-01 14:35:00
7:55 AM,48.2,35.6,62,29.89,10.0,SW,4.6,-,N/A,,Clear,230,2014-02-01 14:55:00
8:15 AM,48.2,35.6,62,29.90,10.0,Calm,Calm,-,N/A,,Clear,0,2014-02-01 15:15:00
8:35 AM,50.0,37.4,62,29.90,10.0,SSW,4.6,-,N/A,,Clear,210,2014-02-01 15:35:00
8:55 AM,53.6,35.6,51,29.91,10.0,West,4.6,-,N/A,,Clear,280,2014-02-01 15:55:00
9:15 AM,53.6,35.6,51,29.92,10.0,WSW,5.8,-,N/A,,Clear,250,2014-02-01 16:15:00
9:35 AM,55.4,35.6,47,29.92,10.0,WSW,6.9,-,N/A,,Clear,240,2014-02-01 16:35:00
9:55 AM,55.4,33.8,44,29.93,10.0,West,6.9,-,N/A,,Clear,260,2014-02-01 16:55:00
10:15 AM,55.4,33.8,44,29.93,10.0,WSW,6.9,-,N/A,,Clear,250,2014-02-01 17:15:00
10:35 AM,57.2,32.0,38,29.93,10.0,West,9.2,-,N/A,,Clear,260,2014-02-01 17:35:00
10:55 AM,57.2,33.8,41,29.93,10.0,WSW,6.9,-,N/A,,Clear,240,2014-02-01 17:55:00
11:15 AM,57.2,32.0,38,29.93,10.0,WSW,8.1,-,N/A,,Clear,240,2014-02-01 18:15:00
11:35 AM,59.0,32.0,36,29.92,10.0,SW,8.1,-,N/A,,Clear,220,2014-02-01 18:35:00
11:55 AM,59.0,33.8,39,29.91,10.0,West,9.2,-,N/A,,Scattered Clouds,280,2014-02-01 18:55:00
12:15 PM,60.8,32.0,34,29.91,10.0,West,8.1,-,N/A,,Scattered Clouds,280,2014-02-01 19:15:00
12:35 PM,60.8,32.0,34,29.90,10.0,West,9.2,-,N/A,,Clear,280,2014-02-01 19:35:00
12:55 PM,60.8,32.0,34,29.89,10.0,West,8.1,15.0,N/A,,Clear,260,2014-02-01 19:55:00
1:15 PM,60.8,32.0,34,29.88,9.0,West,13.8,-,N/A,,Clear,280,2014-02-01 20:15:00
1:35 PM,62.6,32.0,32,29.88,10.0,West,11.5,-,N/A,,Clear,280,2014-02-01 20:35:00
1:55 PM,62.6,30.2,30,29.87,10.0,West,11.5,-,N/A,,Clear,280,2014-02-01 20:55:00
2:15 PM,62.6,30.2,30,29.87,10.0,West,12.7,-,N/A,,Clear,260,2014-02-01 21:15:00
2:35 PM,62.6,28.4,27,29.86,10.0,West,10.4,-,N/A,,Scattered Clouds,270,2014-02-01 21:35:00
2:55 PM,64.4,30.2,28,29.87,10.0,West,13.8,-,N/A,,Mostly Cloudy,270,2014-02-01 21:55:00
3:15 PM,62.6,30.2,30,29.87,10.0,West,15.0,-,N/A,,Overcast,280,2014-02-01 22:15:00
3:35 PM,60.8,30.2,31,29.87,10.0,West,9.2,16.1,N/A,,Mostly Cloudy,260,2014-02-01 22:35:00
3:55 PM,60.8,30.2,31,29.87,10.0,WNW,6.9,-,N/A,,Mostly Cloudy,290,2014-02-01 22:55:00
4:15 PM,60.8,30.2,31,29.88,10.0,WNW,11.5,-,N/A,,Mostly Cloudy,290,2014-02-01 23:15:00
4:35 PM,60.8,28.4,29,29.88,10.0,WNW,8.1,-,N/A,,Overcast,300,2014-02-01 23:35:00
4:55 PM,60.8,28.4,29,29.88,10.0,WNW,10.4,-,N/A,,Overcast,290,2014-02-01 23:55:00
5:15 PM,60.8,28.4,29,29.89,10.0,WNW,9.2,-,N/A,,Overcast,290,2014-02-02 00:15:00
5:35 PM,60.8,30.2,31,29.90,10.0,WNW,6.9,12.7,N/A,,Overcast,290,2014-02-02 00:35:00
5:55 PM,59.0,30.2,34,29.90,10.0,West,5.8,-,N/A,,Overcast,280,2014-02-02 00:55:00
6:15 PM,59.0,30.2,34,29.91,10.0,West,4.6,-,N/A,,Overcast,270,2014-02-02 01:15:00
6:25 PM,57.2,30.2,36,29.91,10.0,West,5.8,-,N/A,,Overcast,280,2014-02-02 01:25:00
6:45 PM,57.2,30.2,36,29.92,10.0,West,6.9,-,N/A,,Overcast,280,2014-02-02 01:45:00
7:15 PM,55.4,28.4,36,29.92,10.0,West,5.8,-,N/A,,Overcast,270,2014-02-02 02:15:00
7:35 PM,53.6,30.2,41,29.93,10.0,West,5.8,-,N/A,,Overcast,270,2014-02-02 02:35:00
7:55 PM,53.6,30.2,41,29.93,10.0,West,5.8,-,N/A,,Overcast,280,2014-02-02 02:55:00
8:15 PM,53.6,30.2,41,29.94,10.0,WNW,5.8,-,N/A,,Overcast,300,2014-02-02 03:15:00
8:35 PM,53.6,26.6,35,29.95,10.0,WNW,4.6,-,N/A,,Overcast,290,2014-02-02 03:35:00
8:55 PM,53.6,24.8,33,29.96,10.0,WNW,6.9,-,N/A,,Overcast,290,2014-02-02 03:55:00
9:15 PM,53.6,24.8,33,29.96,10.0,NW,5.8,-,N/A,,Overcast,310,2014-02-02 04:15:00
9:35 PM,53.6,23.0,30,29.97,10.0,WNW,4.6,-,N/A,,Overcast,290,2014-02-02 04:35:00
9:55 PM,53.6,21.2,28,29.97,10.0,WNW,6.9,-,N/A,,Overcast,290,2014-02-02 04:55:00
10:15 PM,53.6,24.8,33,29.98,10.0,SW,5.8,-,N/A,,Overcast,230,2014-02-02 05:15:00
10:35 PM,51.8,23.0,33,29.99,10.0,SSW,4.6,-,N/A,,Overcast,200,2014-02-02 05:35:00
10:55 PM,51.8,19.4,28,29.99,10.0,SW,5.8,-,N/A,,Overcast,230,2014-02-02 05:55:00
11:15 PM,50.0,17.6,28,29.99,10.0,WSW,6.9,-,N/A,,Overcast,250,2014-02-02 06:15:00
11:35 PM,48.2,17.6,30,29.99,10.0,SW,5.8,-,N/A,,Overcast,230,2014-02-02 06:35:00
11:55 PM,48.2,17.6,30,30.00,10.0,SW,6.9,-,N/A,,Overcast,220,2014-02-02 06:55:00